Weather History for Athens, OH

Change the Weather History Date:

Tuesday, December 24, 2013

  Actual Average (KPKB) Record (KPKB)
Temperature  
Mean Temperature 21 °F 33 °F  
Max Temperature 30 °F 41 °F 76 °F (1964)
Min Temperature 12 °F 25 °F -9 °F (1989)
Degree Days  
Heating Degree Days 44 32  
Month to date heating degree days 699  
Since 1 July heating degree days 1684  
Cooling Degree Days 0 0  
Month to date cooling degree days 0  
Year to date cooling degree days 955  
Moisture  
Dew Point 13 °F    
Average Humidity 72    
Maximum Humidity 90    
Minimum Humidity 56    
Precipitation  
Precipitation 0.00 in 0.11 in 1.30 in (2008)
Month to date precipitation 2.45  
Year to date precipitation 40.54  
Sea Level Pressure  
Sea Level Pressure 30.44 in    
Wind  
Wind Speed 6 mph (WNW)    
Max Wind Speed 16 mph    
Max Gust Speed 22 mph    
Visibility 9 miles    
Events Snow    
T = Trace of Precipitation, MM = Missing Value Source: NWS Daily Summary

Daily Weather History Graph

Daily Weather History Graph

Search for Another Location

Airport:

Trip Planner

Search our weather history database for the weather conditions in past years. The results will help you decide how hot, cold, wet, or windy it might be!

Date:

Astronomy

Dec. 24, 2013 Rise Set
Actual Time 7:46 AM EST 5:11 PM EST
Civil Twilight 7:16 AM EST 5:41 PM EST
Nautical Twilight 6:42 AM EST 6:14 PM EST
Astronomical Twilight 6:09 AM EST 6:47 PM EST
Moon No Moon Rise 11:42 AM EST (12/24)
Length of Visible Light 10h 25m
Length of Day
9h 24m
Waning Gibbous, 59% of the Moon is Illuminated
Dec 24
Waning Gibbous
Dec 25
Last Quarter
Jan 1
New
Jan 7
First Quarter
Jan 15
Full

Hourly Weather History & Observations

Time (EST) Temp. Windchill Dew Point Humidity Pressure Visibility Wind Dir Wind Speed Gust Speed Precip Events Conditions
12:15 AM 30.6 °F 24.7 °F 21.2 °F 68% 30.33 in 10.0 mi NW 5.8 mph - N/A   Overcast
12:35 AM 30.4 °F - 20.8 °F 68% 30.33 in 10.0 mi Calm Calm - N/A   Overcast
12:55 AM 30.2 °F 25.4 °F 21.2 °F 69% 30.32 in 10.0 mi WNW 4.6 mph - N/A   Overcast
1:15 AM 30.2 °F 23.4 °F 21.2 °F 69% 30.32 in 10.0 mi WNW 6.9 mph - N/A   Overcast
1:35 AM 30.0 °F 26.5 °F 21.4 °F 70% 30.32 in 10.0 mi WNW 3.5 mph - N/A   Overcast
1:55 AM 30.0 °F 21.7 °F 21.4 °F 70% 30.31 in 10.0 mi West 9.2 mph - N/A   Overcast
2:15 AM 29.7 °F 21.3 °F 21.9 °F 73% 30.32 in 10.0 mi WSW 9.2 mph - N/A   Overcast
2:35 AM 29.1 °F 22.1 °F 20.1 °F 69% 30.32 in 10.0 mi West 6.9 mph - N/A   Overcast
2:55 AM 29.1 °F 22.1 °F 20.1 °F 69% 30.32 in 10.0 mi West 6.9 mph - N/A   Overcast
3:15 AM 28.9 °F 21.9 °F 19.4 °F 68% 30.32 in 10.0 mi West 6.9 mph - N/A   Overcast
3:35 AM 28.9 °F 21.9 °F 19.4 °F 68% 30.32 in 10.0 mi WNW 6.9 mph - N/A   Overcast
3:55 AM 28.8 °F 21.7 °F 19.6 °F 69% 30.32 in 10.0 mi West 6.9 mph - N/A   Overcast
4:15 AM 28.8 °F 20.9 °F 20.5 °F 71% 30.31 in 10.0 mi West 8.1 mph - N/A   Overcast
4:35 AM 28.4 °F 19.7 °F 20.7 °F 73% 30.31 in 10.0 mi WNW 9.2 mph - N/A   Overcast
4:55 AM 27.5 °F 18.0 °F 21.0 °F 77% 30.31 in 5.0 mi West 10.4 mph - N/A Snow Light Snow
5:15 AM 27.1 °F 18.2 °F 21.2 °F 78% 30.31 in 4.0 mi West 9.2 mph - N/A Snow Light Snow
5:35 AM 27.1 °F 18.9 °F 20.5 °F 76% 30.31 in 10.0 mi West 8.1 mph - N/A   Overcast
5:55 AM 27.0 °F 18.0 °F 20.1 °F 75% 30.31 in 10.0 mi West 9.2 mph - N/A   Overcast
6:15 AM 26.4 °F 17.3 °F 20.3 °F 78% 30.33 in 10.0 mi West 9.2 mph - N/A   Overcast
6:35 AM 26.2 °F 16.4 °F 20.5 °F 79% 30.33 in 5.0 mi West 10.4 mph - N/A Snow Light Snow
6:55 AM 25.7 °F 16.4 °F 21.0 °F 82% 30.34 in 5.0 mi West 9.2 mph - N/A Snow Light Snow
7:15 AM 25.7 °F 16.4 °F 21.0 °F 82% 30.34 in 5.0 mi West 9.2 mph - N/A Snow Light Snow
7:35 AM 24.4 °F 14.2 °F 19.2 °F 81% 30.35 in 4.0 mi WNW 10.4 mph - N/A Snow Light Snow
7:55 AM 24.3 °F 14.6 °F 19.4 °F 82% 30.36 in 4.0 mi WNW 9.2 mph 16.1 mph N/A Snow Light Snow
8:15 AM 23.4 °F 12.2 °F 17.1 °F 77% 30.37 in 10.0 mi WNW 11.5 mph 18.4 mph N/A Snow Light Snow
8:35 AM 23.0 °F 13.9 °F 17.2 °F 79% 30.39 in 5.0 mi NW 8.1 mph 18.4 mph N/A Snow Light Snow
8:55 AM 22.1 °F 9.5 °F 14.2 °F 72% 30.39 in 10.0 mi WNW 13.8 mph 18.4 mph N/A   Overcast
9:15 AM 21.0 °F 8.6 °F 9.5 °F 61% 30.41 in 10.0 mi NW 12.7 mph 21.9 mph N/A   Overcast
9:35 AM 20.5 °F 10.0 °F 6.8 °F 56% 30.42 in 10.0 mi West 9.2 mph 17.3 mph N/A   Scattered Clouds
9:55 AM 20.3 °F 11.5 °F 8.1 °F 59% 30.44 in 10.0 mi West 6.9 mph - N/A   Clear
10:15 AM 19.4 °F 9.5 °F 7.5 °F 60% 30.45 in 10.0 mi WNW 8.1 mph 16.1 mph N/A   Clear
10:35 AM 19.8 °F 6.5 °F 6.8 °F 57% 30.46 in 10.0 mi NW 13.8 mph 19.6 mph N/A   Clear
10:55 AM 19.8 °F 8.3 °F 7.3 °F 59% 30.47 in 10.0 mi West 10.4 mph 20.7 mph N/A   Clear
11:15 AM 20.7 °F 8.8 °F 8.8 °F 60% 30.47 in 10.0 mi WNW 11.5 mph 17.3 mph N/A   Scattered Clouds
11:35 AM 20.1 °F 5.9 °F 9.0 °F 62% 30.47 in 10.0 mi WNW 16.1 mph 20.7 mph N/A   Clear
11:55 AM 19.9 °F 7.9 °F 9.3 °F 63% 30.48 in 10.0 mi West 11.5 mph 19.6 mph N/A   Scattered Clouds
12:15 PM 18.7 °F 5.7 °F 9.3 °F 67% 30.47 in 10.0 mi WNW 12.7 mph 16.1 mph N/A   Scattered Clouds
12:35 PM 19.0 °F 6.1 °F 9.1 °F 65% 30.47 in 10.0 mi NW 12.7 mph - N/A   Mostly Cloudy
12:55 PM 18.7 °F 10.6 °F 9.0 °F 66% 30.48 in 10.0 mi WNW 5.8 mph 16.1 mph N/A   Overcast
1:15 PM 19.0 °F 6.8 °F 9.7 °F 67% 30.48 in 10.0 mi West 11.5 mph - N/A Snow Light Snow
1:35 PM 18.3 °F 6.6 °F 8.4 °F 65% 30.49 in 10.0 mi NW 10.4 mph 17.3 mph N/A Snow Light Snow
1:55 PM 18.5 °F 8.4 °F 8.6 °F 65% 30.49 in 10.0 mi NW 8.1 mph - N/A   Overcast
2:15 PM 19.0 °F 10.0 °F 8.4 °F 63% 30.49 in 10.0 mi WNW 6.9 mph - N/A   Overcast
2:35 PM 19.4 °F 10.4 °F 7.7 °F 60% 30.49 in 10.0 mi NW 6.9 mph - N/A   Mostly Cloudy
2:55 PM 20.1 °F 8.8 °F 8.1 °F 60% 30.50 in 10.0 mi West 10.4 mph - N/A   Mostly Cloudy
3:15 PM 20.3 °F 9.8 °F 7.7 °F 58% 30.51 in 10.0 mi WNW 9.2 mph - N/A   Mostly Cloudy
3:35 PM 20.3 °F 13.8 °F 7.9 °F 59% 30.51 in 10.0 mi West 4.6 mph - N/A   Scattered Clouds
3:55 PM 20.7 °F 10.2 °F 8.2 °F 59% 30.52 in 10.0 mi NW 9.2 mph - N/A   Scattered Clouds
4:15 PM 20.3 °F 10.6 °F 8.6 °F 61% 30.52 in 10.0 mi WNW 8.1 mph - N/A   Clear
4:35 PM 19.8 °F 13.2 °F 7.7 °F 60% 30.53 in 10.0 mi NNW 4.6 mph - N/A   Clear
4:55 PM 19.4 °F 12.8 °F 8.2 °F 62% 30.53 in 10.0 mi West 4.6 mph - N/A   Clear
5:15 PM 18.5 °F 13.3 °F 8.6 °F 65% 30.53 in 10.0 mi West 3.5 mph - N/A   Clear
5:35 PM 18.3 °F - 9.0 °F 67% 30.53 in 10.0 mi Calm Calm - N/A   Clear
5:55 PM 17.1 °F - 9.7 °F 73% 30.54 in 10.0 mi Calm Calm - N/A   Clear
6:15 PM 17.2 °F - 10.2 °F 74% 30.54 in 10.0 mi Calm Calm - N/A   Clear
6:35 PM 16.5 °F - 10.4 °F 77% 30.54 in 10.0 mi Calm Calm - N/A   Clear
6:55 PM 17.6 °F - 9.3 °F 70% 30.54 in 10.0 mi Calm Calm - N/A   Clear
7:15 PM 16.0 °F - 10.2 °F 78% 30.55 in 10.0 mi Calm Calm - N/A   Clear
7:35 PM 15.6 °F - 10.4 °F 80% 30.55 in 10.0 mi Calm Calm - N/A   Clear
7:55 PM 15.8 °F - 10.8 °F 80% 30.55 in 10.0 mi Calm Calm - N/A   Clear
8:15 PM 14.9 °F - 11.3 °F 86% 30.54 in 10.0 mi Calm Calm - N/A   Clear
8:35 PM 15.3 °F - 11.3 °F 84% 30.55 in 10.0 mi Calm Calm - N/A   Clear
8:55 PM 14.5 °F - 10.6 °F 84% 30.54 in 10.0 mi Calm Calm - N/A   Clear
9:15 PM 14.5 °F - 11.3 °F 87% 30.53 in 10.0 mi Calm Calm - N/A   Clear
9:35 PM 14.2 °F - 11.3 °F 88% 30.53 in 10.0 mi Calm Calm - N/A   Clear
9:55 PM 14.0 °F - 11.3 °F 89% 30.52 in 10.0 mi Calm Calm - N/A   Clear
10:15 PM 14.0 °F - 11.3 °F 89% 30.51 in 10.0 mi Calm Calm - N/A   Clear
10:35 PM 14.0 °F - 11.1 °F 88% 30.52 in 10.0 mi Calm Calm - N/A   Clear
10:55 PM 13.3 °F - 10.6 °F 89% 30.52 in 10.0 mi Calm Calm - N/A   Clear
11:15 PM 12.9 °F - 10.4 °F 90% 30.52 in 10.0 mi Calm Calm - N/A   Clear
11:35 PM 13.1 °F - 10.8 °F 90% 30.52 in 10.0 mi Calm Calm - N/A   Clear
11:55 PM 13.1 °F - 10.6 °F 90% 30.52 in 10.0 mi Calm Calm - N/A   Clear